Tracking 25612 objects as of 19-May-2022
HD Live streaming from Space Station
objects crossing your sky now

BREEZE-M R/B

Track BREEZE-M R/B now!


NORAD ID: 37186
Int'l Code: 2010-053B
Perigee: 3,673.9 km
Apogee: 33,981.0 km
Inclination: 21.8 °
Period: 663.5 minutes
Semi major axis: 25198 km
RCS: 7.5201 m2 (large)
Launch date: October 14, 2010
Source: Commonwealth of Independent States (former USSR) (CIS)
Launch site: TYURATAM MISSILE AND SPACE COMPLEX (TTMTR)

Note: This is a ROCKET BODY
aabbcc
Your satellite tracking list
Your tracking list is empty




NASA's NSSDC Master Catalog

Two Line Element Set (TLE):
1 37186U 10053B   22138.73247293 -.00000106  00000-0  00000-0 0  9995
2 37186  21.8124 225.2198 6013696 352.5124 351.5547  2.17041144 91887
Source of the keplerian elements: AFSPC